DECAYED

STARLINK-2238, 48584 (Decayed)

Orbit data source: Space-Track

STARLINK-2238, 48584 was a payload satellite owned by SpaceX/Seattle (US) in LEO that was launched on Sat, 15 May 2021 UTC via an FALCON 9 launch vehicle from the Air Force Eastern Test Range (AFETR). Payload-class satellites include a variety of spacecraft equipped with specific instruments for various scientific and technological missions. These include communications satellites like Starlink; space stations such as the ISS; scientific satellites like the Hubble; Earth observation satellites from companies like Planet Labs, Umbra, and HawkEye 360; GPS; miniature CubeSats for education and research; and military/defense satellites.

Not visible in the next 10 days
Identifier
48584, 2021-041AH
Orbit
Decayed
Country
Flag of USUS
Related business
Manufacturer
SpaceX/Seattle
Mission
Decayed Commercial Communications
Bus & Motor
STARLINK, Unknown motor
Mass
260 kg wet, ~248 kg dry
Launch date (UTC)
2021-05-15 (5 years ago)
Launch vehicle
FALCON 9
Launch site
Air Force Eastern Test Range (AFETR)
Object type
Payload
Rocket body
Debris
Shape & HBR
Box + 1 Pan, 10.1 m
Radar Cross Section
13.562 m², Large (>1 m²)

Expand to show TLE details & history
Last TLE update: 2 months ago

TLE from 2 months ago
0 STARLINK-2238
1 48584U 21041AH  26121.76361875  .10978940  12505-4  39909-3 0  9990
2 48584  53.0362 239.8452 0006214 289.2266  70.8109 16.43931317273387
Epoch: 2026-05-01T18:19Z
TLE epoch observation values (Epoch: 2026-05-01T18:19:36.659Z)
Latitude
-0.00003°
Longitude
105.25122°
Altitude
154.963 km
Speed
7.815 km/s
True Right ascension
15h 59m 22s
True Declination
0° 00' 00"
Sunlit
Object was in full shadow at epoch
Visualization orbit readout
Latitude
Unknown
Longitude
Unknown
Altitude
Unknown
Speed
Unknown
Apparent Right ascension
Unknown
Apparent Declination
Unknown
Sunlit
N/A
Visualization observer readout
Local Sidereal Time
21:47:53
Azimuth
Unknown
Elevation
Unknown
Doppler factor
Unknown
Orbital elements
Apogee altitude
159.715 km
Perigee altitude
151.595 km
Semi-major axis
6,533.792 km
Eccentricity
0.00062
Inclination
53.0362°
RAAN
239.8452°
Arg. of periapsis
289.2266°
True anomaly
70.87817°
Mean anomaly
70.8109°
Eccentric anomaly
70.84453°
Mean motion
4.10956 °/min
Orbital period
87.6 mins
BSTAR
0.00039909
Loading maneuver chart data...
Computing Atmospheric mass density...

Documentation

Showing up to 5 results
|